Weather History for Vero Beach, FL

Change the Weather History Date:

Wednesday, February 13, 2013

  Actual Average Record
Temperature  
Mean Temperature 77 °F 64 °F  
Max Temperature 87 °F 74 °F 87 °F (2013)
Min Temperature 67 °F 54 °F 34 °F (1985)
Degree Days  
Heating Degree Days 0 4  
Month to date heating degree days 39 52  
Since 1 July heating degree days 187 339  
Cooling Degree Days 12 3  
Month to date cooling degree days 38 31  
Year to date cooling degree days 172 92  
Growing Degree Days 27 (Base 50)    
Moisture  
Dew Point 66 °F    
Average Humidity 74    
Maximum Humidity 100    
Minimum Humidity 48    
Precipitation  
Precipitation 0.00 in 0.10 in 2.51 in (1947)
Month to date precipitation 0.00 1.21  
Year to date precipitation 1.52 3.71  
Sea Level Pressure  
Sea Level Pressure 29.95 in    
Wind  
Wind Speed 11 mph (SSW)    
Max Wind Speed 24 mph    
Max Gust Speed 29 mph    
Visibility 8 miles    
Events      
T = Trace of Precipitation, MM = Missing Value Source: NWS Daily Summary

Daily Weather History Graph

Daily Weather History Graph

Search for Another Location

Airport:

Trip Planner

Search our weather history database for the weather conditions in past years. The results will help you decide how hot, cold, wet, or windy it might be!

Date:

Astronomy

Feb. 13, 2013 Rise Set
Actual Time 7:00 AM EST 6:11 PM EST
Civil Twilight 6:36 AM EST 6:35 PM EST
Nautical Twilight 6:08 AM EST 7:03 PM EST
Astronomical Twilight 5:41 AM EST 7:30 PM EST
Moon 8:52 AM EST (2/13) 9:45 PM EST (2/13)
Length of Visible Light 11h 59m
Length of Day
11h 11m
Waxing Crescent, 13% of the Moon is Illuminated
Feb 13
Waxing Crescent
Feb 17
First Quarter
Feb 25
Full
Mar 4
Last Quarter
Mar 11
New

Hourly Weather History & Observations

Time (EST) Temp. Heat Index Dew Point Humidity Pressure Visibility Wind Dir Wind Speed Gust Speed Precip Events Conditions
12:53 AM 68.0 °F - 64.9 °F 90% 29.99 in 10.0 mi South 4.6 mph - N/A   Clear
1:53 AM 68.0 °F - 64.9 °F 90% 29.98 in 10.0 mi South 6.9 mph - N/A   Clear
2:53 AM 69.1 °F - 66.0 °F 90% 29.97 in 10.0 mi SSW 5.8 mph - N/A   Overcast
3:53 AM 69.1 °F - 66.9 °F 93% 29.96 in 9.0 mi SSW 8.1 mph - N/A   Partly Cloudy
4:42 AM 68.0 °F - 66.2 °F 94% 29.96 in 7.0 mi SSW 9.2 mph - N/A   Partly Cloudy
4:53 AM 68.0 °F - 66.0 °F 93% 29.96 in 6.0 mi SSW 8.1 mph - N/A   Scattered Clouds
5:11 AM 68.0 °F - 66.2 °F 94% 29.96 in 6.0 mi SSW 8.1 mph - N/A   Mostly Cloudy
5:53 AM 68.0 °F - 66.9 °F 96% 29.97 in 5.0 mi SSW 8.1 mph - N/A   Overcast
6:53 AM 69.1 °F - 68.0 °F 96% 29.96 in 5.0 mi SSW 11.5 mph - N/A   Overcast
7:01 AM 69.8 °F - 68.0 °F 94% 29.97 in 4.0 mi SSW 11.5 mph - N/A   Overcast
7:13 AM 69.8 °F - 68.0 °F 94% 29.97 in 1.8 mi South 11.5 mph - N/A   Overcast
7:23 AM 69.8 °F - 68.0 °F 94% 29.97 in 2.5 mi SSW 9.2 mph - N/A   Overcast
7:30 AM 69.8 °F - 68.0 °F 94% 29.98 in 3.0 mi SSW 9.2 mph - N/A   Overcast
7:53 AM 70.0 °F - 69.1 °F 97% 29.99 in 4.0 mi SSW 10.4 mph - N/A   Overcast
8:53 AM 72.0 °F - 70.0 °F 93% 29.99 in 7.0 mi South 11.5 mph - N/A   Overcast
9:42 AM 73.4 °F - 69.8 °F 88% 30.00 in 10.0 mi SSW 13.8 mph - N/A   Overcast
9:53 AM 77.0 °F - 71.1 °F 82% 29.99 in 10.0 mi SSW 12.7 mph 20.7 mph N/A   Mostly Cloudy
10:17 AM 78.8 °F - 69.8 °F 74% 29.99 in 10.0 mi SSW 16.1 mph 21.9 mph N/A   Scattered Clouds
10:24 AM 80.6 °F 83.9 °F 69.8 °F 70% 29.99 in 10.0 mi SW 17.3 mph 20.7 mph N/A   Mostly Cloudy
10:53 AM 82.0 °F 85.9 °F 70.0 °F 67% 29.98 in 10.0 mi SW 15.0 mph 24.2 mph N/A   Mostly Cloudy
11:25 AM 82.4 °F 86.3 °F 69.8 °F 66% 29.97 in 10.0 mi SSW 17.3 mph - N/A   Scattered Clouds
11:53 AM 82.0 °F 84.9 °F 68.0 °F 62% 29.96 in 10.0 mi SW 18.4 mph 25.3 mph N/A   Partly Cloudy
12:53 PM 84.0 °F 87.0 °F 68.0 °F 58% 29.93 in 10.0 mi SSW 15.0 mph 25.3 mph N/A   Partly Cloudy
1:53 PM 84.9 °F 86.1 °F 64.0 °F 49% 29.90 in 10.0 mi SSW 16.1 mph 26.5 mph N/A   Scattered Clouds
2:53 PM 86.0 °F 87.6 °F 64.9 °F 49% 29.87 in 10.0 mi SW 18.4 mph 26.5 mph N/A   Scattered Clouds
3:53 PM 84.9 °F 86.6 °F 64.9 °F 51% 29.86 in 10.0 mi SSW 16.1 mph 24.2 mph N/A   Clear
4:53 PM 84.9 °F 86.1 °F 64.0 °F 49% 29.86 in 10.0 mi SSW 11.5 mph 23.0 mph N/A   Partly Cloudy
5:53 PM 82.9 °F 83.7 °F 62.1 °F 49% 29.87 in 10.0 mi WSW 16.1 mph 25.3 mph N/A   Partly Cloudy
6:53 PM 80.1 °F 81.5 °F 63.0 °F 56% 29.89 in 10.0 mi WSW 11.5 mph - N/A   Clear
7:53 PM 77.0 °F - 64.0 °F 64% 29.90 in 10.0 mi SW 11.5 mph - N/A   Clear
8:53 PM 75.9 °F - 64.9 °F 69% 29.93 in 10.0 mi SW 11.5 mph - N/A   Clear
9:53 PM 73.9 °F - 66.0 °F 76% 29.94 in 10.0 mi SW 9.2 mph - N/A   Clear
10:53 PM 73.0 °F - 66.9 °F 81% 29.96 in 10.0 mi WSW 6.9 mph - N/A   Scattered Clouds
11:10 PM 69.8 °F - 59.0 °F 68% 29.98 in 10.0 mi NNW 19.6 mph 28.8 mph N/A   Mostly Cloudy
11:53 PM 66.9 °F - 57.0 °F 70% 29.99 in 10.0 mi NNW 9.2 mph - N/A   Overcast